VE1RCI-13 Weather Reports


Display with metric or nautical units.
time (UTC)temp
F
wind
direction
speed
MPH
gust
MPH
rain 1hr
in
rain 24hr
in
rain mn
in
humidity
%
barometer
mb
20260504234605 54 0.0 0.0 0.00 0.00 0.00 59 1005.3
20260504233553 54 0.0 0.0 0.00 0.00 0.00 59 1005.2
20260504232540 55 0.0 0.0 0.00 0.00 0.00 59 1005.3
20260504231528 54 0.0 0.0 0.00 0.00 0.00 59 1005.2
20260504230516 55 0.0 0.0 0.00 0.00 0.00 58 1005.3
20260504225504 55 0.0 0.0 0.00 0.00 0.00 57 1004.8
20260504224452 56 0.0 0.0 0.00 0.00 0.00 57 1004.7
20260504223440 57 0.0 0.0 0.00 0.00 0.00 56 1004.6
20260504222427 57 0.0 0.0 0.00 0.00 0.00 56 1004.5
20260504221415 57 0.0 0.0 0.00 0.00 0.00 56 1004.6
20260504220403 57 0.0 0.0 0.00 0.00 0.00 55 1004.6
20260504215351 57 0.0 0.0 0.00 0.00 0.00 55 1004.4
20260504214339 58 0.0 0.0 0.00 0.00 0.00 54 1004.4
20260504213326 58 0.0 0.0 0.00 0.00 0.00 54 1004.1
20260504212314 58 0.0 0.0 0.00 0.00 0.00 53 1004.0
20260504211302 58 0.0 0.0 0.00 0.00 0.00 52 1003.9
20260504210250 58 0.0 0.0 0.00 0.00 0.00 51 1003.7
20260504205238 59 0.0 0.0 0.00 0.00 0.00 50 1003.7
20260504204226 59 0.0 0.0 0.00 0.00 0.00 49 1003.6
20260504203213 60 0.0 0.0 0.00 0.00 0.00 48 1003.6
20260504202202 61 0.0 0.0 0.00 0.00 0.00 46 1003.5
20260504201149 61 0.0 0.0 0.00 0.00 0.00 43 1003.3
20260504200137 62 0.0 0.0 0.00 0.00 0.00 42 1003.1
20260504195125 62 0.0 0.0 0.00 0.00 0.00 48 1002.7
20260504194113 62 0.0 0.0 0.00 0.00 0.00 49 1002.9
20260504193101 62 0.0 0.0 0.00 0.00 0.00 48 1002.8
20260504192049 62 0.0 0.0 0.00 0.00 0.00 47 1002.6
20260504191036 62 0.0 0.0 0.00 0.00 0.00 47 1002.6
20260504190024 62 0.0 0.0 0.00 0.00 0.00 44 1002.4
20260504185012 62 0.0 0.0 0.00 0.00 0.00 48 1002.3
20260504184000 62 0.0 0.0 0.00 0.00 0.00 49 1002.5
20260504182948 62 0.0 0.0 0.00 0.00 0.00 46 1002.6
20260504181935 62 0.0 0.0 0.00 0.00 0.00 46 1002.7
20260504180923 61 0.0 0.0 0.00 0.00 0.00 50 1002.6
20260504175911 61 0.0 0.0 0.00 0.00 0.00 50 1002.8
20260504174859 61 0.0 0.0 0.00 0.00 0.00 52 1002.5
20260504173847 61 0.0 0.0 0.00 0.00 0.00 53 1002.7
20260504172835 60 0.0 0.0 0.00 0.00 0.00 53 1002.8
20260504171822 60 0.0 0.0 0.00 0.00 0.00 53 1002.7
20260504170810 60 0.0 0.0 0.00 0.00 0.00 54 1002.5
20260504150544 54 0.0 0.0 0.00 0.00 0.00 59 1002.5
20260504140431 52 0.0 0.0 0.00 0.00 0.00 69 1002.0
20260504130319 50 0.0 0.0 0.00 0.00 0.00 78 1001.0
20260504120206 48 0.0 0.0 0.00 0.00 0.00 78 1000.4
20260504081739 46 0.0 0.0 0.00 0.00 0.00 81 995.2
20260504080726 46 0.0 0.0 0.00 0.00 0.00 81 995.0
20260504050348 44 0.0 0.0 0.00 0.00 0.00 80 990.6
20260504045336 44 0.0 0.0 0.00 0.00 0.00 80 990.4
20260504044324 44 0.0 0.0 0.00 0.00 0.00 80 990.1
20260504043311 44 0.0 0.0 0.00 0.00 0.00 80 989.8
20260504042259 44 0.0 0.0 0.00 0.00 0.00 79 989.8
20260504041245 44 0.0 0.0 0.00 0.00 0.00 79 989.3
20260504040233 44 0.0 0.0 0.00 0.00 0.00 79 989.1
20260504035221 45 0.0 0.0 0.00 0.00 0.00 79 988.7
20260504034208 45 0.0 0.0 0.00 0.00 0.00 79 988.3
20260504033156 45 0.0 0.0 0.00 0.00 0.00 79 988.0
20260504032144 45 0.0 0.0 0.00 0.00 0.00 79 987.6
20260504031132 45 0.0 0.0 0.00 0.00 0.00 79 987.4
20260504030120 45 0.0 0.0 0.00 0.00 0.00 78 986.9
20260504025108 45 0.0 0.0 0.00 0.00 0.00 78 986.7
20260504024056 45 0.0 0.0 0.00 0.00 0.00 78 986.4
20260504023044 45 0.0 0.0 0.00 0.00 0.00 78 986.1
20260504022031 46 0.0 0.0 0.00 0.00 0.00 78 985.7
20260504021019 46 0.0 0.0 0.00 0.00 0.00 78 985.2
20260504020007 46 0.0 0.0 0.00 0.00 0.00 79 984.7
20260504014955 46 0.0 0.0 0.00 0.00 0.00 79 984.2
20260504013942 46 0.0 0.0 0.00 0.00 0.00 79 983.8
20260504012930 45 0.0 0.0 0.00 0.00 0.00 78 983.3
20260504011919 44 0.0 0.0 0.00 0.00 0.00 77 982.0
20260504010906 45 0.0 0.0 0.00 0.00 0.00 77 982.6
20260504005854 46 0.0 0.0 0.00 0.00 0.00 77 982.9
20260504004842 46 0.0 0.0 0.00 0.00 0.00 76 982.6
20260504003829 46 0.0 0.0 0.00 0.00 0.00 76 982.0
20260504002817 46 0.0 0.0 0.00 0.00 0.00 75 981.5
20260504001805 47 0.0 0.0 0.00 0.00 0.00 76 980.9
20260504000753 47 0.0 0.0 0.00 0.00 0.00 76 980.6
20260503235741 47 0.0 0.0 0.00 0.00 0.00 76 980.1